Weather History for Valentine, NE

Change the Weather History Date:

Monday, February 18, 2013

  Actual Average Record
Temperature  
Mean Temperature 28 °F 28 °F  
Max Temperature 37 °F 41 °F 72 °F (1930)
Min Temperature 19 °F 15 °F -26 °F (2006)
Degree Days  
Heating Degree Days 37 37  
Month to date heating degree days 592 701  
Since 1 July heating degree days 4527 4879  
Cooling Degree Days 0 0  
Month to date cooling degree days 0 0  
Year to date cooling degree days 0 0  
Moisture  
Dew Point 18 °F    
Average Humidity 59    
Maximum Humidity 75    
Minimum Humidity 43    
Precipitation  
Precipitation 0.00 in 0.02 in 0.88 in (1901)
Month to date precipitation 0.54 0.26  
Year to date precipitation 0.79 0.52  
Snow  
Snow 0.00 in 0.20 in 9.00 in (1901)
Month to date snowfall 4.0 3.3  
Since 1 July snowfall 22.2 19.8  
Snow Depth 0.00 in    
Sea Level Pressure  
Sea Level Pressure 29.94 in    
Wind  
Wind Speed 18 mph (NNW)    
Max Wind Speed 36 mph    
Max Gust Speed 43 mph    
Visibility 10 miles    
Events      
T = Trace of Precipitation, MM = Missing Value Source: NWS Daily Summary

Daily Weather History Graph

Daily Weather History Graph

Search for Another Location

Airport:

Trip Planner

Search our weather history database for the weather conditions in past years. The results will help you decide how hot, cold, wet, or windy it might be!

Date:

Astronomy

Feb. 18, 2013 Rise Set
Actual Time 7:34 AM CST 6:18 PM CST
Civil Twilight 7:05 AM CST 6:46 PM CST
Nautical Twilight 6:32 AM CST 7:20 PM CST
Astronomical Twilight 6:00 AM CST 7:52 PM CST
Moon 12:01 PM CST (2/18) 2:20 AM CST (2/18)
Length of Visible Light 11h 41m
Length of Day
10h 43m
First Quarter, 58% of the Moon is Illuminated
Feb 18
First Quarter
Feb 25
Full
Mar 4
Last Quarter
Mar 11
New
Mar 19
First Quarter

Hourly Weather History & Observations

Time (CST) Temp. Windchill Dew Point Humidity Pressure Visibility Wind Dir Wind Speed Gust Speed Precip Events Conditions
12:52 AM 36.0 °F 25.3 °F 27.0 °F 70% 29.74 in 10.0 mi NW 19.6 mph 33.4 mph N/A   Partly Cloudy
1:52 AM 34.0 °F 23.0 °F 26.1 °F 73% 29.75 in 10.0 mi NW 18.4 mph 28.8 mph N/A   Scattered Clouds
2:00 AM 33.8 °F 22.8 °F 26.6 °F 75% 29.72 in 10.0 mi NW 18.4 mph 28.8 mph N/A   Mostly Cloudy
2:07 AM 33.8 °F 21.6 °F 26.6 °F 75% 29.72 in 10.0 mi NW 23.0 mph 32.2 mph N/A   Scattered Clouds
2:15 AM 33.8 °F 22.5 °F 26.6 °F 75% 29.73 in 10.0 mi NW 19.6 mph 25.3 mph N/A   Mostly Cloudy
2:52 AM 35.1 °F 24.8 °F 26.1 °F 70% 29.77 in 10.0 mi NW 17.3 mph 25.3 mph N/A   Overcast
3:48 AM 33.8 °F 23.9 °F 24.8 °F 70% 29.75 in 10.0 mi NW 15.0 mph 24.2 mph N/A   Overcast
3:52 AM 34.0 °F 24.2 °F 25.0 °F 70% 29.78 in 10.0 mi NW 15.0 mph - N/A   Overcast
4:11 AM 33.8 °F 22.8 °F 24.8 °F 70% 29.74 in 10.0 mi NNW 18.4 mph 26.5 mph N/A   Overcast
4:52 AM 34.0 °F 22.1 °F 24.1 °F 67% 29.78 in 10.0 mi NW 21.9 mph 28.8 mph N/A   Overcast
5:52 AM 33.1 °F 20.3 °F 21.9 °F 64% 29.81 in 10.0 mi NNW 24.2 mph 33.4 mph N/A   Overcast
6:52 AM 30.2 °F 17.1 °F 21.2 °F 69% 29.79 in 10.0 mi NW 21.9 mph 41.4 mph N/A   Overcast
7:09 AM 30.2 °F 17.1 °F 21.2 °F 69% 29.80 in 10.0 mi NNW 21.9 mph 38.0 mph N/A   Overcast
7:52 AM 28.9 °F 14.8 °F 19.9 °F 69% 29.89 in 10.0 mi NNW 24.2 mph 33.4 mph N/A   Overcast
8:52 AM 27.0 °F 13.5 °F 18.0 °F 69% 29.96 in 10.0 mi NNW 19.6 mph 27.6 mph N/A   Overcast
9:52 AM 27.0 °F 13.9 °F 16.0 °F 63% 29.97 in 10.0 mi NNW 18.4 mph 31.1 mph N/A   Overcast
10:52 AM 26.1 °F 14.0 °F 17.1 °F 69% 30.00 in 10.0 mi NNW 15.0 mph - N/A   Overcast
11:52 AM 28.0 °F 15.3 °F 17.1 °F 63% 30.02 in 10.0 mi NW 18.4 mph 27.6 mph N/A   Overcast
12:52 PM 32.0 °F 18.9 °F 16.0 °F 52% 30.01 in 10.0 mi NW 24.2 mph 34.5 mph N/A   Mostly Cloudy
1:09 PM 32.0 °F 18.9 °F 15.8 °F 51% 29.94 in 10.0 mi NW 24.2 mph 33.4 mph N/A   Mostly Cloudy
1:52 PM 30.9 °F 17.8 °F 16.0 °F 54% 30.02 in 10.0 mi NW 23.0 mph 29.9 mph N/A   Overcast
2:52 PM 32.0 °F 21.6 °F 15.1 °F 50% 30.02 in 10.0 mi NNW 15.0 mph 26.5 mph N/A   Mostly Cloudy
3:52 PM 34.0 °F 23.0 °F 15.1 °F 46% 30.02 in 10.0 mi NNW 18.4 mph 25.3 mph N/A   Overcast
4:52 PM 33.1 °F 21.2 °F 14.0 °F 46% 30.02 in 10.0 mi North 20.7 mph 28.8 mph N/A   Mostly Cloudy
5:52 PM 30.0 °F 19.1 °F 14.0 °F 51% 30.06 in 10.0 mi NNW 15.0 mph - N/A   Mostly Cloudy
6:52 PM 27.0 °F 15.2 °F 12.9 °F 56% 30.10 in 10.0 mi NNW 15.0 mph - N/A   Partly Cloudy
7:52 PM 24.1 °F 11.0 °F 10.9 °F 57% 30.14 in 10.0 mi NNW 16.1 mph - N/A   Partly Cloudy
8:52 PM 21.9 °F 8.2 °F 10.0 °F 60% 30.18 in 10.0 mi NNW 16.1 mph 24.2 mph N/A   Mostly Cloudy
9:52 PM 19.9 °F 6.7 °F 9.0 °F 62% 30.19 in 10.0 mi NNW 13.8 mph - N/A   Clear
10:52 PM 19.0 °F 8.2 °F 9.0 °F 65% 30.21 in 10.0 mi NW 9.2 mph - N/A   Mostly Cloudy
11:52 PM 19.0 °F 6.8 °F 9.0 °F 65% 30.23 in 10.0 mi NNW 11.5 mph - N/A   Clear